"generation_time";"museums_public";"collections_public";"objects_public";"images_public";"resouces_public";"transcriptions_public";"museum_records_public";"collection_records_public";"object_records_public";"literature";"exhibitions_public";"appointments_public";"articles_public";"series_public";"events";"links";"institution_faq_entries";"distinct_persinst";"distinct_places";"distinct_times";"distinct_tags";"avg_text_len_public";"avg_puqi_public"
"2019-11-29";"6";"41";"5755";"5460";"1729";"0";"0";"0";"0";"1526";"1";"0";"0";"23";"13114";"5854";"0";"1325";"390";"933";"823";"387.4";"182.5"
"2019-11-30";"6";"41";"5760";"5477";"1729";"0";"0";"0";"0";"1526";"1";"0";"0";"24";"13121";"5854";"0";"1325";"392";"933";"819";"392.6";"182.5"
"2019-12-03";"6";"41";"5761";"5477";"1729";"0";"0";"0";"0";"1527";"1";"0";"0";"24";"13126";"5856";"0";"1327";"392";"933";"819";"393.2";"182.5"
"2019-12-04";"6";"41";"5761";"5477";"1729";"0";"0";"0";"0";"1527";"1";"0";"0";"24";"13130";"5866";"0";"1327";"392";"933";"819";"393.3";"182.5"
"2019-12-05";"6";"41";"5763";"5479";"1729";"0";"0";"0";"0";"1529";"1";"0";"0";"24";"13130";"5867";"0";"1327";"392";"933";"819";"395.0";"182.5"
"2019-12-06";"6";"41";"5763";"5479";"1729";"0";"0";"0";"0";"1529";"1";"0";"0";"24";"13132";"5867";"0";"1328";"392";"933";"819";"395.2";"182.5"
"2019-12-07";"6";"41";"5763";"5479";"1729";"0";"0";"0";"0";"1529";"1";"0";"0";"24";"13138";"5867";"0";"1331";"394";"934";"827";"395.2";"182.5"
"2019-12-08";"6";"41";"5763";"5479";"1729";"0";"0";"0";"0";"1529";"1";"0";"0";"24";"13139";"5867";"0";"1331";"394";"934";"826";"395.2";"182.5"
"2019-12-09";"6";"41";"5763";"5479";"1729";"0";"0";"0";"0";"1529";"1";"0";"0";"24";"13139";"5867";"0";"1331";"394";"934";"826";"395.2";"182.5"
"2019-12-10";"6";"41";"5767";"5483";"1729";"0";"0";"0";"0";"1529";"1";"0";"0";"24";"13140";"5867";"0";"1332";"394";"935";"827";"395.4";"182.5"
"2019-12-11";"6";"45";"6188";"5485";"2566";"0";"0";"0";"0";"2330";"1";"0";"0";"45";"13666";"6803";"0";"1471";"457";"1158";"892";"384.1";"170.1"
"2019-12-12";"6";"45";"6188";"5485";"2566";"0";"0";"0";"0";"2332";"1";"0";"0";"45";"13666";"6803";"0";"1471";"457";"1157";"892";"378.2";"183.1"
"2019-12-13";"6";"45";"6191";"5490";"2566";"6";"0";"0";"0";"2334";"1";"0";"0";"45";"13679";"6803";"0";"1476";"460";"1159";"893";"378.9";"183.1"
"2019-12-14";"6";"45";"6191";"5490";"2566";"6";"0";"0";"0";"2334";"1";"0";"0";"45";"13677";"6803";"0";"1476";"460";"1159";"891";"378.8";"183.1"
"2019-12-15";"6";"45";"6191";"5490";"2566";"6";"0";"0";"0";"2334";"1";"0";"0";"45";"13675";"6803";"0";"1476";"459";"1159";"890";"378.8";"183.1"
"2019-12-16";"6";"45";"6194";"5497";"2566";"10";"0";"0";"0";"2334";"1";"0";"0";"46";"13678";"6803";"0";"1476";"459";"1159";"889";"377.8";"183.1"
"2019-12-17";"6";"45";"6194";"5497";"2566";"23";"0";"0";"0";"2334";"1";"0";"0";"46";"13679";"6803";"0";"1477";"459";"1159";"888";"366.5";"183.1"
"2019-12-18";"6";"45";"6195";"5498";"2566";"23";"0";"0";"0";"2334";"1";"0";"0";"46";"13681";"6806";"0";"1478";"459";"1160";"888";"366.5";"183.1"
"2019-12-19";"6";"45";"6195";"5498";"2566";"23";"0";"0";"0";"2334";"1";"0";"0";"46";"13681";"6806";"0";"1478";"459";"1160";"888";"366.5";"183.1"
"2019-12-20";"6";"45";"6196";"5500";"2566";"24";"0";"0";"0";"2334";"1";"0";"0";"46";"13684";"6806";"0";"1478";"459";"1160";"888";"366.5";"183.1"
"2019-12-21";"6";"45";"6196";"5500";"2566";"24";"0";"0";"0";"2334";"1";"0";"0";"46";"13684";"6806";"0";"1478";"459";"1160";"888";"366.5";"183.1"
"2019-12-22";"6";"45";"6196";"5501";"2566";"24";"0";"0";"0";"2334";"1";"0";"0";"46";"13684";"6806";"0";"1478";"459";"1160";"888";"366.5";"183.1"
"2019-12-23";"6";"45";"6197";"5505";"2566";"25";"0";"0";"0";"2334";"1";"0";"0";"46";"13689";"6806";"0";"1479";"458";"1160";"888";"366.6";"183.1"
"2019-12-24";"6";"45";"6198";"5508";"2566";"25";"0";"0";"0";"2334";"1";"0";"0";"46";"13690";"6806";"0";"1479";"458";"1160";"890";"366.6";"183.1"
"2019-12-25";"6";"45";"6199";"5511";"2566";"27";"0";"0";"0";"2334";"1";"0";"0";"46";"13693";"6810";"0";"1479";"458";"1160";"890";"366.8";"183.1"
"2019-12-26";"6";"45";"6199";"5511";"2566";"27";"0";"0";"0";"2334";"1";"0";"0";"46";"13693";"6810";"0";"1479";"458";"1160";"890";"366.8";"183.1"
"2019-12-27";"6";"45";"6203";"5527";"2566";"28";"0";"0";"0";"2335";"1";"0";"0";"46";"13702";"6810";"0";"1481";"462";"1161";"892";"366.6";"183.1"
"2019-12-28";"6";"45";"6204";"5530";"2566";"29";"0";"0";"0";"2335";"1";"0";"0";"46";"13704";"6810";"0";"1481";"462";"1161";"892";"366.7";"183.1"
"2019-12-29";"6";"45";"6204";"5530";"2566";"29";"0";"0";"0";"2335";"1";"0";"0";"46";"13704";"6810";"0";"1481";"462";"1161";"892";"366.7";"183.1"
"2019-12-30";"6";"45";"6206";"5534";"2566";"30";"0";"0";"0";"2335";"1";"0";"0";"46";"13706";"6812";"0";"1481";"462";"1161";"892";"366.7";"183.1"
"2019-12-31";"6";"45";"6211";"5566";"2566";"31";"0";"0";"0";"2335";"1";"0";"0";"46";"13719";"6814";"0";"1486";"462";"1164";"893";"366.6";"183.0"
"2020-01-01";"6";"45";"6211";"5566";"2566";"31";"0";"0";"0";"2335";"1";"0";"0";"46";"13726";"6814";"0";"1486";"464";"1164";"895";"366.6";"183.0"
"2020-01-02";"6";"45";"6215";"5595";"2566";"31";"0";"0";"0";"2335";"1";"0";"0";"46";"13731";"6814";"0";"1486";"467";"1165";"896";"366.4";"183.0"
"2020-01-03";"6";"45";"6216";"5597";"2566";"31";"0";"0";"0";"2335";"1";"0";"0";"46";"13732";"6814";"0";"1486";"467";"1165";"896";"366.3";"183.0"
"2020-01-04";"6";"45";"6217";"5601";"2566";"32";"0";"0";"0";"2335";"1";"0";"0";"46";"13734";"6814";"0";"1487";"467";"1165";"896";"366.4";"183.0"
"2020-01-05";"6";"46";"6220";"5616";"2566";"32";"0";"0";"0";"2335";"1";"0";"0";"46";"13736";"6814";"0";"1487";"467";"1165";"896";"366.3";"182.9"
"2020-01-06";"6";"46";"6225";"5646";"2566";"32";"0";"0";"0";"2335";"1";"0";"0";"46";"13741";"6814";"0";"1487";"469";"1165";"900";"366.0";"182.9"
"2020-01-07";"6";"46";"6226";"5648";"2566";"32";"0";"0";"0";"2335";"1";"0";"0";"46";"13743";"6814";"0";"1487";"469";"1166";"900";"368.9";"182.9"
"2020-01-08";"6";"46";"6226";"5648";"2566";"32";"0";"0";"0";"2335";"1";"0";"0";"46";"13743";"6814";"0";"1487";"469";"1166";"900";"368.9";"182.9"
"2020-01-09";"6";"46";"6227";"5649";"2566";"32";"0";"0";"0";"2335";"1";"0";"0";"46";"13744";"6814";"0";"1487";"469";"1166";"900";"368.8";"182.9"
"2020-01-10";"6";"46";"6229";"5651";"2566";"32";"0";"0";"0";"2336";"1";"0";"0";"46";"13746";"6815";"0";"1487";"469";"1166";"900";"368.8";"182.9"
"2020-01-11";"6";"46";"6230";"5653";"2566";"32";"0";"0";"0";"2336";"1";"0";"0";"46";"13747";"6820";"0";"1487";"469";"1166";"900";"368.8";"182.9"
"2020-01-12";"6";"47";"6244";"5730";"2566";"41";"0";"0";"0";"2336";"1";"0";"0";"47";"13774";"6820";"0";"1487";"469";"1167";"902";"368.6";"182.7"
"2020-01-13";"6";"47";"6244";"5730";"2566";"41";"0";"0";"0";"2336";"1";"0";"0";"47";"13774";"6820";"0";"1487";"469";"1167";"902";"368.6";"182.7"
"2020-01-14";"6";"47";"6244";"5730";"2566";"41";"0";"0";"0";"2336";"1";"0";"0";"47";"13774";"6820";"0";"1487";"469";"1166";"902";"368.6";"182.7"
"2020-01-15";"6";"47";"6244";"5730";"2566";"41";"0";"0";"0";"2336";"1";"0";"0";"47";"13774";"6820";"0";"1487";"469";"1166";"902";"368.6";"182.7"
"2020-01-16";"6";"47";"6244";"5730";"2566";"41";"0";"0";"0";"2336";"1";"0";"0";"47";"13774";"6820";"0";"1487";"469";"1166";"902";"368.6";"182.7"
"2020-01-17";"6";"47";"6244";"5730";"2566";"41";"0";"0";"0";"2336";"1";"0";"0";"47";"13774";"6820";"0";"1487";"469";"1166";"902";"368.6";"182.7"
"2020-01-18";"6";"47";"6244";"5730";"2566";"41";"0";"0";"0";"2336";"1";"0";"0";"47";"13774";"6820";"0";"1487";"469";"1166";"902";"368.6";"182.7"
"2020-01-19";"6";"47";"6244";"5730";"2566";"41";"0";"0";"0";"2336";"1";"0";"0";"47";"13774";"6820";"0";"1487";"469";"1165";"902";"368.6";"182.7"
"2020-01-20";"6";"47";"6256";"5770";"2566";"41";"0";"0";"0";"2336";"1";"0";"0";"47";"13802";"6820";"0";"1486";"473";"1168";"907";"368.0";"182.6"
"2020-01-21";"6";"47";"6256";"5773";"2566";"41";"0";"0";"0";"2336";"1";"0";"0";"47";"13802";"6820";"0";"1486";"473";"1168";"907";"368.0";"182.6"
"2020-01-22";"6";"49";"6266";"5784";"2566";"41";"0";"0";"0";"2338";"1";"0";"0";"47";"13829";"6822";"0";"1487";"474";"1169";"908";"368.2";"182.6"
"2020-01-23";"6";"49";"6272";"5842";"2566";"41";"0";"0";"0";"2338";"1";"0";"0";"47";"13854";"6822";"0";"1491";"477";"1174";"919";"368.0";"182.5"
"2020-01-24";"6";"49";"6277";"5848";"2566";"41";"0";"0";"0";"2338";"1";"0";"0";"47";"13864";"6822";"0";"1491";"477";"1174";"919";"367.7";"182.5"
"2020-01-25";"6";"49";"6277";"5846";"2566";"41";"0";"0";"0";"2338";"1";"0";"0";"47";"13864";"6824";"0";"1491";"477";"1174";"919";"367.8";"182.5"
"2020-01-26";"6";"49";"6278";"5847";"2566";"41";"0";"0";"0";"2339";"1";"0";"0";"48";"13908";"6831";"0";"1492";"477";"1174";"920";"368.1";"182.5"
"2020-01-27";"6";"49";"6278";"5847";"2566";"41";"0";"0";"0";"2339";"1";"0";"0";"48";"13908";"6831";"0";"1492";"477";"1174";"920";"368.1";"182.5"
"2020-01-28";"6";"49";"6288";"5857";"2566";"41";"0";"0";"0";"2339";"1";"0";"0";"48";"13911";"6831";"0";"1493";"477";"1175";"921";"368.6";"182.5"
"2020-01-29";"6";"49";"6288";"5857";"2566";"41";"0";"0";"0";"2339";"1";"0";"0";"48";"13911";"6833";"0";"1493";"477";"1175";"921";"368.6";"182.5"
"2020-01-30";"6";"49";"6288";"5857";"2566";"41";"0";"0";"0";"2339";"1";"0";"0";"49";"13914";"6833";"0";"1493";"477";"1175";"921";"368.6";"182.5"
"2020-01-31";"6";"49";"6288";"5857";"2566";"41";"0";"0";"0";"2339";"1";"0";"0";"49";"13914";"6833";"0";"1493";"477";"1175";"921";"367.9";"182.5"
"2020-02-01";"6";"49";"6288";"5857";"2566";"41";"0";"0";"0";"2339";"1";"0";"0";"49";"13914";"6833";"0";"1493";"477";"1175";"921";"367.9";"182.5"
"2020-02-02";"6";"49";"6289";"5858";"2566";"41";"0";"0";"0";"2339";"1";"0";"0";"49";"13919";"6833";"0";"1494";"477";"1175";"926";"367.9";"182.5"
"2020-02-03";"6";"49";"6289";"5858";"2566";"41";"0";"0";"0";"2339";"1";"0";"0";"49";"13930";"6833";"0";"1494";"477";"1175";"926";"367.9";"182.4"
"2020-02-04";"6";"49";"6295";"5876";"2566";"41";"0";"0";"0";"2339";"1";"0";"0";"49";"13899";"6836";"0";"1498";"478";"1175";"926";"368.0";"182.4"
"2020-02-05";"6";"49";"6296";"5872";"2566";"41";"0";"0";"0";"2339";"1";"0";"0";"49";"13896";"6836";"0";"1496";"478";"1175";"926";"368.2";"182.4"
"2020-02-06";"6";"49";"6296";"5872";"2566";"41";"0";"0";"0";"2339";"1";"0";"0";"49";"13896";"6836";"0";"1496";"478";"1175";"926";"368.2";"182.4"
"2020-02-07";"6";"49";"6298";"5876";"2566";"41";"0";"0";"0";"2339";"1";"0";"0";"49";"13904";"6836";"0";"1496";"480";"1177";"928";"368.1";"182.4"
"2020-02-08";"6";"49";"6299";"5886";"2566";"41";"0";"0";"0";"2339";"1";"0";"0";"49";"13905";"6836";"0";"1497";"480";"1176";"928";"368.2";"182.4"
"2020-02-09";"6";"49";"6307";"5886";"2566";"41";"0";"0";"0";"2339";"1";"0";"0";"50";"13929";"6839";"0";"1497";"480";"1176";"928";"367.8";"182.4"
"2020-02-13";"6";"51";"6335";"6017";"2566";"41";"0";"0";"0";"2340";"1";"0";"0";"51";"13990";"6840";"0";"1498";"482";"1182";"934";"366.5";"182.1"
"2020-02-15";"6";"51";"6345";"6053";"2566";"41";"0";"0";"0";"2340";"1";"0";"0";"51";"14003";"6840";"0";"1498";"479";"1185";"936";"366.3";"182.0"
"2020-02-16";"6";"51";"6345";"6053";"2566";"41";"0";"0";"0";"2340";"1";"0";"0";"51";"14003";"6840";"0";"1498";"479";"1185";"936";"366.3";"182.0"
"2020-02-17";"6";"51";"6349";"6076";"2566";"41";"0";"0";"0";"2340";"1";"0";"0";"51";"14015";"6840";"0";"1499";"481";"1189";"939";"366.6";"182.0"
"2020-02-18";"6";"51";"6349";"6076";"2566";"41";"0";"0";"0";"2340";"1";"0";"0";"51";"14016";"6840";"0";"1499";"482";"1189";"938";"366.6";"182.0"
"2020-02-19";"6";"51";"6349";"6076";"2566";"41";"0";"0";"0";"2340";"1";"0";"0";"51";"14016";"6840";"0";"1499";"482";"1189";"938";"366.6";"182.0"
"2020-02-20";"6";"51";"6350";"6079";"2566";"41";"0";"0";"0";"2341";"1";"0";"0";"51";"14018";"6841";"0";"1499";"484";"1189";"939";"366.9";"182.0"
"2020-02-21";"6";"51";"6350";"6079";"2566";"41";"0";"0";"0";"2341";"1";"0";"0";"51";"14017";"6841";"0";"1499";"481";"1189";"939";"366.9";"182.0"
"2020-02-22";"6";"51";"6350";"6079";"2566";"41";"0";"0";"0";"2341";"1";"0";"0";"51";"14018";"6841";"0";"1500";"481";"1189";"939";"367.0";"182.0"
"2020-02-23";"6";"51";"6351";"6080";"2566";"42";"0";"0";"0";"2341";"1";"0";"0";"51";"14020";"6841";"0";"1500";"482";"1190";"940";"367.0";"182.0"
"2020-02-24";"6";"51";"6356";"6092";"2566";"43";"0";"0";"0";"2343";"1";"0";"0";"51";"14028";"6843";"0";"1500";"482";"1190";"945";"367.0";"182.0"
"2020-02-25";"6";"51";"6370";"6123";"2566";"43";"0";"0";"0";"2343";"1";"0";"0";"51";"14070";"6843";"0";"1500";"482";"1192";"945";"366.4";"181.9"
"2020-02-26";"6";"51";"6370";"6123";"2566";"43";"0";"0";"0";"2343";"1";"0";"0";"51";"14070";"6843";"0";"1500";"482";"1192";"945";"366.4";"181.9"
"2020-02-27";"6";"51";"6370";"6124";"2566";"43";"0";"0";"0";"2343";"1";"0";"0";"51";"14070";"6844";"0";"1501";"482";"1192";"945";"366.3";"181.9"
"2020-02-28";"6";"51";"6370";"6124";"2566";"43";"0";"0";"0";"2343";"1";"0";"0";"51";"14070";"6844";"0";"1501";"482";"1192";"945";"366.3";"181.9"
"2020-03-01";"6";"51";"6377";"6170";"2566";"43";"0";"0";"0";"2343";"1";"0";"0";"51";"14098";"6844";"0";"1501";"484";"1193";"944";"366.0";"181.8"
"2020-03-03";"6";"51";"6388";"6185";"2566";"43";"0";"0";"0";"2343";"1";"0";"0";"51";"14133";"6844";"0";"1501";"484";"1195";"943";"365.4";"181.7"
"2020-03-04";"6";"51";"6388";"6185";"2566";"43";"0";"0";"0";"2343";"1";"0";"0";"51";"14133";"6844";"0";"1501";"484";"1195";"943";"365.4";"181.7"
"2020-03-05";"6";"51";"6395";"6203";"2566";"43";"0";"0";"0";"2343";"1";"0";"0";"51";"14154";"6844";"0";"1502";"484";"1195";"945";"365.1";"181.6"
"2020-03-06";"6";"51";"6395";"6203";"2566";"43";"0";"0";"0";"2343";"1";"0";"0";"51";"14154";"6844";"0";"1502";"484";"1195";"945";"365.1";"181.6"
"2020-03-07";"6";"51";"6399";"6246";"2566";"43";"0";"0";"0";"2343";"1";"0";"0";"51";"14183";"6844";"0";"1502";"485";"1197";"949";"364.9";"181.6"
"2020-03-08";"6";"51";"6406";"6270";"2566";"43";"0";"0";"0";"2343";"1";"0";"0";"51";"14183";"6844";"0";"1502";"485";"1197";"949";"364.6";"181.5"
"2020-03-09";"6";"51";"6406";"6270";"2566";"43";"0";"0";"0";"2343";"1";"0";"0";"51";"14185";"6844";"0";"1503";"485";"1197";"944";"364.6";"181.5"
"2020-03-10";"6";"51";"6406";"6270";"2566";"43";"0";"0";"0";"2343";"1";"0";"0";"51";"14185";"6844";"0";"1503";"485";"1197";"944";"364.6";"181.5"
"2020-03-11";"6";"51";"6410";"6274";"2566";"43";"0";"0";"0";"2344";"1";"0";"0";"52";"14211";"6844";"0";"1507";"485";"1197";"944";"364.6";"181.5"
"2020-03-12";"6";"51";"6414";"6278";"2566";"43";"0";"0";"0";"2344";"1";"0";"0";"52";"14233";"6844";"0";"1508";"485";"1197";"944";"364.7";"181.5"
"2020-03-13";"6";"51";"6414";"6278";"2566";"43";"0";"0";"0";"2344";"1";"0";"0";"52";"14233";"6844";"0";"1508";"485";"1197";"944";"364.7";"181.5"
"2020-03-14";"6";"51";"6414";"6278";"2566";"43";"0";"0";"0";"2344";"1";"0";"0";"52";"14233";"6844";"0";"1508";"485";"1197";"944";"364.7";"181.5"
"2020-03-15";"6";"51";"6414";"6278";"2566";"43";"0";"0";"0";"2344";"1";"0";"0";"52";"14233";"6844";"0";"1508";"485";"1197";"944";"364.7";"181.5"
"2020-03-16";"6";"51";"6417";"6376";"2566";"43";"0";"0";"0";"2344";"1";"0";"0";"52";"14249";"6844";"0";"1509";"485";"1200";"945";"364.5";"181.4"
"2020-03-18";"6";"51";"6418";"6377";"2566";"43";"0";"0";"0";"2345";"1";"0";"0";"52";"14254";"6844";"0";"1511";"486";"1201";"946";"364.5";"181.4"
"2020-03-20";"6";"51";"6425";"6511";"2566";"43";"0";"0";"0";"2345";"1";"0";"0";"52";"14270";"6844";"0";"1511";"486";"1201";"950";"364.3";"181.2"
"2020-03-23";"7";"51";"6431";"6582";"2566";"43";"0";"0";"0";"2347";"1";"0";"0";"52";"14296";"6844";"0";"1514";"486";"1204";"953";"364.2";"181.1"
"2020-03-24";"7";"51";"6431";"6582";"2566";"43";"0";"0";"0";"2347";"1";"0";"0";"52";"14296";"6844";"0";"1514";"486";"1204";"953";"364.2";"181.1"
"2020-03-25";"7";"52";"6440";"6652";"2566";"43";"0";"0";"0";"2347";"1";"0";"0";"52";"14329";"6844";"0";"1515";"486";"1209";"962";"364.0";"180.9"
"2020-03-26";"7";"52";"6445";"6659";"2566";"43";"0";"0";"0";"2347";"1";"0";"0";"52";"14331";"6844";"0";"1517";"487";"1209";"962";"363.7";"180.9"
"2020-03-28";"7";"52";"6456";"6670";"2566";"43";"0";"0";"0";"2349";"1";"0";"0";"52";"14355";"6844";"0";"1519";"488";"1213";"970";"364.4";"180.9"
"2020-03-30";"7";"52";"6456";"6670";"2566";"43";"0";"0";"0";"2349";"1";"0";"0";"52";"14355";"6844";"0";"1519";"487";"1213";"969";"364.4";"180.9"
"2020-03-31";"7";"52";"6457";"6671";"2566";"43";"0";"0";"0";"2349";"1";"0";"0";"52";"14357";"6847";"0";"1519";"487";"1213";"969";"364.3";"180.9"
"2020-04-01";"7";"52";"6459";"6674";"2566";"43";"0";"0";"0";"2350";"1";"0";"0";"52";"14357";"6847";"0";"1519";"487";"1213";"968";"364.5";"180.9"
"2020-04-02";"7";"52";"6460";"6675";"2566";"43";"0";"0";"0";"2350";"1";"0";"0";"52";"14363";"6850";"0";"1522";"487";"1213";"968";"364.5";"180.9"
"2020-04-03";"7";"52";"6460";"6675";"2566";"43";"0";"0";"0";"2350";"1";"0";"0";"53";"14374";"6852";"0";"1524";"487";"1215";"973";"364.5";"180.9"
"2020-04-04";"7";"52";"6460";"6675";"2566";"43";"0";"0";"0";"2350";"1";"0";"0";"53";"14374";"6852";"0";"1524";"487";"1215";"973";"364.5";"180.9"
"2020-04-05";"7";"52";"6460";"6675";"2566";"43";"0";"0";"0";"2350";"1";"0";"0";"53";"14374";"6852";"0";"1524";"487";"1215";"973";"364.5";"180.9"
"2020-04-06";"7";"52";"6460";"6675";"2566";"43";"0";"0";"0";"2350";"1";"0";"0";"53";"14374";"6852";"0";"1524";"487";"1215";"973";"364.5";"180.9"
"2020-04-07";"7";"52";"6460";"6675";"2566";"43";"0";"0";"0";"2350";"1";"0";"0";"53";"14374";"6852";"0";"1524";"487";"1215";"973";"364.5";"180.9"
"2020-04-08";"7";"52";"6460";"6675";"2566";"43";"0";"0";"0";"2350";"1";"0";"0";"53";"14374";"6852";"0";"1524";"487";"1215";"972";"364.5";"180.9"
"2020-04-09";"7";"52";"6460";"6675";"2566";"43";"0";"0";"0";"2350";"1";"0";"0";"53";"14374";"6852";"0";"1524";"487";"1215";"972";"364.5";"180.9"
"2020-04-10";"7";"52";"6468";"6683";"2566";"43";"0";"0";"0";"2351";"1";"0";"0";"53";"14386";"6852";"0";"1527";"489";"1217";"976";"364.5";"181.0"
"2020-04-11";"7";"52";"6468";"6683";"2566";"43";"0";"0";"0";"2351";"1";"0";"0";"53";"14386";"6852";"0";"1527";"489";"1216";"976";"364.5";"181.0"
"2020-04-12";"7";"52";"6472";"6687";"2566";"43";"0";"0";"0";"2351";"1";"0";"0";"55";"14395";"6852";"0";"1529";"489";"1216";"977";"364.4";"180.9"
"2020-04-13";"7";"52";"6472";"6687";"2566";"43";"0";"0";"0";"2351";"1";"0";"0";"55";"14395";"6852";"0";"1529";"489";"1216";"977";"364.4";"180.9"
"2020-04-14";"7";"52";"6475";"6690";"2566";"43";"0";"0";"0";"2351";"1";"0";"0";"55";"14398";"6852";"0";"1530";"489";"1217";"979";"364.7";"180.9"
"2020-04-15";"7";"52";"6475";"6690";"2566";"43";"0";"0";"0";"2351";"1";"0";"0";"55";"14398";"6852";"0";"1530";"489";"1217";"979";"364.7";"180.9"
"2020-04-16";"7";"52";"6475";"6690";"2566";"43";"0";"0";"0";"2351";"1";"0";"0";"55";"14398";"6852";"0";"1530";"489";"1217";"979";"364.7";"180.9"
"2020-04-17";"7";"52";"6475";"6690";"2566";"43";"0";"0";"0";"2351";"1";"0";"0";"55";"14398";"6852";"0";"1530";"489";"1217";"979";"364.7";"180.9"
"2020-04-18";"7";"52";"6475";"6690";"2566";"43";"0";"0";"0";"2351";"1";"0";"0";"55";"14398";"6852";"0";"1530";"489";"1217";"977";"364.7";"180.9"
"2020-04-19";"7";"52";"6484";"6699";"2566";"43";"0";"0";"0";"2351";"1";"0";"0";"56";"14411";"6854";"0";"1531";"489";"1217";"978";"364.7";"180.9"
"2020-04-20";"7";"52";"6483";"6698";"2566";"43";"0";"0";"0";"2351";"1";"0";"0";"56";"14434";"6854";"0";"1534";"491";"1221";"981";"364.7";"180.9"
"2020-04-21";"7";"52";"6496";"6711";"2566";"43";"0";"0";"0";"2351";"1";"0";"0";"56";"14433";"6854";"0";"1534";"491";"1220";"980";"365.3";"180.9"
"2020-04-22";"7";"52";"6496";"6711";"2566";"43";"0";"0";"0";"2351";"1";"0";"0";"56";"14433";"6854";"0";"1534";"491";"1220";"980";"365.3";"180.9"
"2020-04-23";"7";"52";"6496";"6711";"2566";"43";"0";"0";"0";"2351";"1";"0";"0";"56";"14419";"6854";"0";"1534";"491";"1224";"980";"365.3";"180.9"
"2020-04-25";"7";"52";"6496";"6711";"2566";"43";"0";"0";"0";"2351";"1";"0";"0";"56";"14419";"6854";"0";"1534";"491";"1224";"980";"365.3";"180.9"
"2020-04-26";"7";"52";"6496";"6711";"2566";"43";"0";"0";"0";"2351";"1";"0";"0";"56";"14419";"6854";"0";"1534";"491";"1224";"980";"365.3";"180.9"
"2020-04-27";"7";"52";"6496";"6711";"2566";"43";"0";"0";"0";"2351";"1";"0";"0";"56";"14419";"6854";"0";"1534";"491";"1224";"980";"365.3";"180.9"
"2020-04-28";"7";"52";"6496";"6711";"2566";"43";"0";"0";"0";"2351";"1";"0";"0";"56";"14419";"6854";"0";"1534";"491";"1224";"980";"365.3";"180.9"
"2020-04-29";"7";"52";"6497";"6716";"2566";"43";"0";"0";"0";"2351";"1";"0";"0";"56";"14423";"6855";"0";"1536";"491";"1225";"980";"365.4";"180.9"
"2020-04-30";"7";"52";"6497";"6716";"2566";"43";"0";"0";"0";"2351";"1";"0";"0";"56";"14423";"6855";"0";"1536";"491";"1225";"980";"365.4";"180.9"
"2020-05-01";"7";"52";"6497";"6716";"2566";"43";"0";"0";"0";"2351";"1";"0";"0";"56";"14423";"6855";"0";"1536";"491";"1225";"980";"365.4";"180.9"
"2020-05-02";"7";"52";"6516";"6798";"2566";"43";"0";"0";"0";"2351";"1";"0";"0";"56";"14445";"6855";"0";"1536";"491";"1226";"984";"364.4";"180.7"
"2020-05-03";"7";"52";"6517";"6799";"2566";"43";"0";"0";"0";"2351";"1";"0";"0";"56";"14446";"6857";"0";"1538";"491";"1226";"984";"364.5";"180.7"
"2020-05-04";"7";"52";"6517";"6799";"2566";"43";"0";"0";"0";"2351";"1";"0";"0";"56";"15489";"6857";"0";"1538";"491";"1226";"984";"364.5";"180.7"
"2020-05-05";"7";"52";"6517";"6799";"2566";"43";"0";"0";"0";"2351";"1";"0";"0";"56";"15489";"6857";"0";"1538";"491";"1226";"984";"364.5";"180.7"
"2020-05-06";"7";"52";"6517";"6799";"2566";"43";"0";"0";"0";"2351";"1";"0";"0";"56";"15489";"6857";"0";"1538";"491";"1226";"984";"364.5";"180.7"
"2020-05-07";"7";"52";"6517";"6799";"2566";"43";"0";"0";"0";"2351";"1";"0";"0";"56";"15489";"6857";"0";"1538";"491";"1226";"984";"364.5";"180.7"
"2020-05-08";"7";"52";"6517";"6799";"2566";"43";"0";"0";"0";"2351";"1";"0";"0";"56";"15489";"6857";"0";"1538";"491";"1226";"984";"364.5";"180.7"
"2020-05-09";"7";"52";"6517";"6799";"2566";"43";"0";"0";"0";"2351";"1";"0";"0";"56";"15489";"6857";"0";"1538";"491";"1226";"984";"364.5";"180.7"
"2020-05-10";"7";"52";"6517";"6799";"2566";"43";"0";"0";"0";"2351";"1";"0";"0";"56";"15489";"6857";"0";"1537";"491";"1226";"984";"364.5";"180.7"
"2020-05-11";"7";"52";"6517";"6799";"2566";"43";"0";"0";"0";"2351";"1";"0";"0";"56";"15489";"6857";"0";"1537";"491";"1226";"984";"364.5";"180.7"
"2020-05-12";"7";"52";"6522";"6804";"2566";"44";"1";"0";"0";"2351";"1";"0";"0";"56";"15503";"6857";"0";"1539";"491";"1229";"987";"364.3";"180.7"
"2020-05-13";"7";"52";"6522";"6804";"2566";"44";"1";"0";"0";"2351";"1";"0";"0";"56";"15503";"6857";"0";"1539";"491";"1229";"987";"364.3";"180.7"
"2020-05-14";"7";"52";"6522";"6804";"2566";"44";"1";"0";"0";"2351";"1";"0";"0";"56";"15503";"6857";"0";"1539";"491";"1229";"987";"364.3";"180.7"
"2020-05-15";"7";"52";"6523";"6805";"2566";"44";"1";"0";"0";"2351";"1";"0";"0";"56";"15505";"6857";"0";"1539";"491";"1230";"987";"364.2";"180.7"
"2020-05-16";"7";"52";"6523";"6805";"2566";"44";"1";"0";"0";"2351";"1";"0";"0";"56";"15506";"6857";"0";"1539";"492";"1230";"986";"364.2";"180.7"
"2020-05-17";"7";"52";"6569";"6851";"2566";"44";"1";"0";"0";"2351";"1";"0";"0";"56";"15683";"6857";"0";"1539";"499";"1230";"988";"362.2";"180.3"
"2020-05-18";"7";"52";"6569";"6851";"2566";"44";"1";"0";"0";"2351";"1";"0";"0";"56";"15683";"6857";"0";"1539";"499";"1230";"986";"362.2";"180.3"
"2020-05-19";"7";"52";"6569";"6851";"2566";"44";"1";"0";"0";"2351";"1";"0";"0";"56";"15683";"6857";"0";"1539";"499";"1230";"986";"362.2";"180.3"
"2020-05-20";"7";"52";"6569";"6851";"2566";"44";"1";"0";"0";"2351";"1";"0";"0";"56";"15683";"6857";"0";"1539";"499";"1230";"986";"362.2";"180.3"
"2020-05-21";"7";"52";"6569";"6851";"2566";"44";"1";"0";"0";"2351";"1";"0";"0";"56";"15683";"6857";"0";"1539";"499";"1230";"986";"362.2";"180.3"
"2020-05-22";"7";"52";"6569";"6851";"2566";"44";"1";"0";"0";"2352";"1";"0";"0";"57";"15710";"6857";"0";"1541";"500";"1230";"986";"362.2";"180.3"
"2020-05-23";"7";"52";"6569";"6851";"2566";"44";"1";"0";"0";"2352";"1";"0";"0";"57";"15710";"6857";"0";"1541";"500";"1230";"986";"362.2";"180.3"